Location: Newark
(49.3808°N, 3.1844°E)
Time: 09:53:43
(UTC+00:00)

Vanguard 1 Rocket - Pass Details

Date: 21 November 2019
Orbit: 650 x 4226 km, 34.3° (Epoch: 06 December)

Event Time Altitude Azimuth Distance (km) Brightness Sun altitude
Rises 04:15:50 0° 234° (SW) 2,973 - -27.4°
Reaches altitude 10° 04:19:06 10° 207° (SSW) 2,058 - -26.8°
Exits shadow 04:21:06 14° 179° (S) 1,876 9.0 -26.5°
Maximum altitude 04:21:26 14° 175° (S) 1,886 9.1 -26.5°
Drops below altitude 10° 04:23:59 10° 143° (SE) 2,300 9.9 -26.1°
Sets 04:28:04 0° 119° (ESE) 3,623 11.5 -25.4°
